GFSFLT2_700_spd_018.txt.gz
Wind_Speed
25 19 18 14 11 11 7 5 8 10 10 11 10 8 6 3 1 4 7 9 11 12 13 17 20 23 21 19 19 19 13 8
19 16 18 13 11 7 5 8 10 10 12 12 10 8 5 2 2 6 9 11 13 14 15 18 21 24 28 26 21 19 20 18
15 13 12 11 6 4 6 9 11 11 12 12 9 5 5 4 7 8 11 12 14 16 17 19 21 25 29 31 24 21 21 23
12 11 8 6 7 8 10 10 9 11 10 11 8 6 7 10 13 15 16 16 18 18 16 21 23 28 29 28 25 23 23 28
12 7 8 8 8 10 9 9 8 9 9 8 5 8 10 14 17 20 24 21 17 17 21 17 27 32 33 30 28 26 28 30
7 9 8 8 9 8 10 10 11 7 7 7 8 13 13 13 16 18 18 27 21 25 23 24 31 33 32 34 36 35 34 35
10 9 6 7 8 9 6 7 7 4 9 11 14 22 22 26 23 24 27 41 30 29 30 32 29 32 33 37 40 40 40 40
11 9 8 7 4 4 6 9 11 15 22 24 23 26 25 23 26 20 17 21 23 28 28 29 32 34 37 40 42 43 43 42
9 7 6 4 4 8 11 15 10 6 5 14 21 21 22 21 21 16 17 19 24 27 30 33 37 38 39 40 41 44 45 42
5 4 6 6 7 10 13 14 14 10 3 12 15 19 19 16 16 16 17 22 28 32 35 37 39 42 43 44 46 43 38 38
7 8 10 11 12 13 15 15 12 8 6 10 12 11 13 15 16 19 23 27 32 37 38 40 42 43 44 43 46 46 42 36
11 12 13 14 15 16 16 15 13 10 8 10 11 11 13 18 23 25 28 32 36 38 39 41 42 43 44 43 44 44 42 38
17 15 15 15 16 16 16 15 13 13 11 12 13 15 17 20 25 31 34 36 38 40 41 42 41 42 43 42 42 43 42 35
20 18 17 16 15 16 15 15 15 14 13 15 16 20 25 32 35 34 38 38 38 39 40 42 41 40 41 43 44 45 44 44
22 22 16 14 14 10 14 15 15 19 18 19 20 23 28 33 36 39 36 35 37 38 38 40 41 40 39 42 44 47 49 47
20 16 15 14 12 13 13 18 21 21 24 28 30 31 32 35 36 37 37 38 37 38 38 38 39 41 41 42 44 46 49 50
18 17 15 13 14 15 16 20 22 23 27 29 35 34 35 37 35 34 36 37 38 37 37 38 37 39 41 44 44 42 40 42
18 18 15 16 17 18 20 22 26 30 29 33 41 35 33 34 33 35 37 37 37 38 38 38 40 41 41 37 36 36 38 40
19 19 18 18 18 19 22 25 29 31 33 37 46 41 36 34 34 36 38 38 37 37 39 41 37 36 32 34 37 34 34 28
21 22 22 21 20 21 24 27 31 35 36 39 41 37 35 35 35 38 39 40 38 41 41 39 34 27 30 31 35 32 19 26

GFSFLT2_700_spd_021.txt.gz
Wind_Speed
31 31 19 27 22 12 8 6 8 13 14 14 11 9 6 3 2 5 8 9 10 10 11 12 12 14 16 18 19 18 18 17
21 25 19 15 11 9 9 8 12 14 14 14 12 7 2 2 5 8 10 12 13 12 13 13 12 14 20 23 21 15 18 20
13 22 17 11 11 10 8 9 10 12 13 12 9 5 3 3 5 8 9 13 15 16 16 17 17 15 22 25 23 18 20 20
24 18 12 14 11 7 7 8 8 9 10 9 8 7 7 9 10 12 13 17 19 21 25 25 26 24 28 26 21 19 23 22
18 13 8 5 6 7 7 8 8 6 6 7 9 11 14 10 13 17 16 19 22 23 27 25 27 28 32 30 31 29 28 29
12 8 7 6 5 3 2 1 2 4 8 9 13 15 14 14 15 17 24 25 23 30 28 24 26 29 31 32 34 35 35 36
9 9 8 6 5 6 5 2 1 1 12 13 15 18 18 17 18 19 21 20 20 22 22 24 26 28 30 32 34 34 36 38
11 10 7 6 5 3 3 4 6 5 11 20 26 22 23 26 24 22 19 16 18 20 21 25 28 31 32 33 34 37 38 36
12 8 7 5 1 2 5 7 6 9 9 10 17 18 25 22 20 21 18 20 21 23 26 29 34 37 37 37 39 39 37 36
8 5 4 3 5 6 8 8 9 9 9 8 11 15 18 18 18 17 18 22 25 28 31 33 36 39 40 38 38 39 40 37
5 4 3 7 8 10 11 12 9 11 11 9 11 13 15 15 14 15 19 23 26 28 31 35 36 35 35 35 35 37 36 35
6 6 5 10 11 12 16 14 12 14 12 9 10 13 16 14 16 20 25 27 29 33 35 34 34 33 33 33 34 36 37 37
8 8 10 13 13 16 17 16 16 13 11 12 11 12 16 19 18 22 26 28 32 33 32 33 33 33 34 34 33 33 36 38
11 13 14 17 19 18 17 18 14 13 15 14 15 16 19 22 25 30 30 31 31 30 32 34 34 35 35 36 38 38 38 41
17 20 21 21 21 18 18 14 15 15 16 17 18 24 25 29 36 33 33 32 30 30 31 33 35 35 36 39 43 45 45 45
24 24 26 23 19 18 17 16 18 18 20 21 21 25 29 35 41 36 38 34 32 33 32 33 35 36 37 39 41 43 45 45
25 27 23 20 19 18 15 18 19 20 24 26 29 31 33 39 42 37 33 32 33 34 33 33 35 37 38 39 39 40 38 39
22 21 20 19 18 16 16 18 18 21 25 28 29 31 39 40 37 35 35 34 33 32 34 36 37 39 38 36 38 39 39 40
22 20 19 18 17 19 20 21 22 25 27 28 29 36 39 36 35 35 35 34 33 33 35 37 37 38 38 38 37 36 36 35
23 23 21 19 20 22 23 26 28 29 30 30 33 37 37 35 36 35 35 36 36 34 35 37 36 36 36 35 35 35 33 31

GFSFLT2_700_spd_024.txt.gz
Wind_Speed
39 43 37 40 35 20 17 11 11 15 15 14 12 10 7 4 3 3 2 5 7 10 11 13 12 11 11 18 22 21 17 14
24 27 30 33 28 17 14 10 12 15 14 14 11 8 8 6 7 5 6 10 11 14 17 17 18 17 18 20 25 23 19 20
34 29 34 27 19 12 10 9 14 14 13 14 12 10 10 10 9 9 10 12 14 17 17 20 22 18 20 21 25 24 20 20
32 35 31 21 13 8 8 11 13 12 13 13 13 13 12 12 11 11 11 12 14 20 21 24 25 20 22 24 24 26 26 26
21 18 17 12 9 11 11 10 9 9 10 11 12 12 12 12 14 14 15 17 25 23 20 24 23 20 25 27 29 32 33 32
16 14 15 14 14 11 9 7 6 5 5 7 11 13 15 15 16 17 20 23 25 21 18 18 20 22 24 27 29 29 29 30
18 18 18 16 13 12 9 7 5 4 3 7 12 14 16 18 18 21 23 23 22 19 19 19 19 23 27 31 33 34 34 33
16 15 16 16 13 10 9 6 1 2 3 9 15 20 23 23 24 24 20 21 20 18 19 22 25 28 30 33 34 34 33 34
15 15 13 11 10 6 4 3 2 5 6 10 13 17 17 17 19 19 19 18 18 21 24 27 29 31 33 35 37 36 35 34
11 11 6 5 3 0 1 4 5 7 8 10 11 14 14 16 17 18 18 18 21 24 26 28 31 34 35 33 33 34 34 33
6 6 3 2 4 4 6 8 9 10 11 11 12 11 12 15 17 18 19 21 27 31 30 29 32 32 31 31 32 33 33 32
8 7 7 6 8 7 8 11 12 12 13 13 14 12 13 16 18 21 23 23 26 27 30 32 31 30 30 30 30 31 32 32
8 9 9 11 10 10 11 12 14 14 14 14 15 16 17 17 16 21 25 32 33 30 32 32 30 31 31 30 30 30 31 34
11 11 11 12 14 16 15 14 15 17 15 13 14 18 18 20 21 24 28 28 29 36 33 32 32 32 32 32 32 33 34 36
13 12 15 17 19 20 19 16 16 14 13 12 12 13 15 20 22 28 31 32 30 30 32 33 33 35 35 34 37 38 40 40
18 18 20 24 22 22 17 16 15 12 12 13 15 18 20 23 28 32 34 33 34 33 35 35 35 35 36 37 38 40 41 43
22 24 25 29 25 20 17 16 15 14 14 16 19 22 24 26 32 36 34 35 36 36 37 38 37 36 38 39 38 39 39 41
26 31 30 29 20 18 18 18 17 17 20 23 25 27 28 29 32 35 36 36 35 36 38 39 38 39 40 40 40 40 39 40
28 23 21 19 18 19 20 20 21 23 26 28 32 34 32 34 36 35 38 39 38 39 39 40 40 39 38 38 38 38 38 39
32 28 21 20 21 23 24 25 27 29 30 33 34 34 37 38 46 39 40 39 42 41 40 40 40 39 38 37 35 34 35 37

GFSFLT2_700_spd_027.txt.gz
Wind_Speed
38 38 38 38 34 32 24 22 21 17 18 16 14 12 10 8 5 3 4 6 8 10 12 13 14 18 18 16 20 23 23 22
37 41 46 43 37 34 27 19 13 17 17 17 15 13 11 8 7 5 6 8 11 12 13 15 17 23 16 15 17 19 21 21
33 22 42 31 30 29 19 14 16 17 17 16 14 13 12 11 7 8 8 11 13 15 22 23 17 18 13 16 19 19 19 21
10 22 33 40 28 16 12 14 17 16 16 16 16 13 10 10 9 9 11 14 15 20 20 16 15 16 17 18 20 23 25 26
35 32 27 23 18 16 14 14 13 13 12 12 10 9 11 11 12 12 14 15 18 18 18 16 16 15 16 20 23 26 27 29
27 22 18 21 16 15 13 12 10 8 8 8 9 10 12 13 16 17 18 20 19 19 16 17 18 20 22 26 29 29 30 30
19 19 21 20 17 15 12 11 10 9 7 7 7 12 14 17 19 20 21 21 18 17 17 18 21 23 26 28 31 34 36 33
25 23 22 20 18 16 13 9 8 4 3 4 7 11 14 15 15 16 16 15 14 15 17 20 23 26 29 32 35 37 37 35
20 19 19 18 15 13 8 6 6 2 4 7 9 13 14 14 15 15 14 13 14 17 20 25 30 33 34 35 38 39 39 36
16 15 14 12 11 10 5 3 2 5 6 8 11 12 15 15 14 14 15 16 18 22 27 31 32 33 36 37 38 38 38 37
11 10 9 7 5 5 3 2 5 7 8 10 11 12 13 14 15 17 19 21 25 27 28 33 33 34 37 38 39 38 38 37
9 7 6 5 3 4 5 4 6 8 10 12 11 13 13 14 15 19 21 25 28 31 35 41 37 37 38 38 38 39 39 38
8 7 6 6 5 5 6 9 9 10 14 14 13 13 14 15 17 21 25 29 33 35 34 33 36 38 37 37 39 39 39 39
9 10 10 9 9 10 12 13 13 14 14 14 14 12 13 16 19 23 26 29 32 31 30 32 34 35 37 38 39 39 39 40
10 11 13 13 14 16 17 16 14 13 12 11 12 13 16 18 21 25 28 30 31 30 32 34 34 35 36 37 40 41 41 42
14 16 15 15 19 20 19 18 17 12 13 15 15 17 20 22 25 29 32 35 32 33 35 35 37 37 39 40 40 41 43 45
15 16 17 18 22 23 21 20 17 16 17 18 19 22 25 28 32 35 37 37 38 36 40 38 39 41 42 42 43 43 43 43
18 17 18 21 27 27 25 20 18 19 20 22 25 29 31 34 37 41 40 39 35 40 42 38 41 43 42 43 43 42 41 41
21 19 20 24 26 20 21 20 23 25 26 29 31 34 36 40 44 42 40 42 44 43 43 40 43 42 42 43 43 41 40 39
22 23 24 27 22 22 23 24 27 30 32 33 35 37 41 43 44 44 42 53 41 45 42 43 44 44 44 42 39 37 35 35

GFSFLT2_700_spd_030.txt.gz
Wind_Speed
36 42 37 36 31 27 25 22 20 18 16 16 15 13 12 9 4 3 6 8 10 13 13 18 18 16 17 11 12 15 16 17
32 32 45 43 37 30 28 25 20 25 18 18 16 13 10 6 1 3 7 7 8 11 16 19 17 13 12 9 11 13 14 17
26 32 40 46 37 33 26 29 30 22 19 17 15 12 8 5 3 5 6 8 9 13 16 17 12 12 13 13 13 14 17 19
34 35 38 39 40 34 30 23 19 19 18 15 12 9 7 5 7 9 9 9 12 15 15 12 11 13 12 14 17 20 22 23
28 20 25 28 35 25 20 19 20 19 16 13 10 8 8 9 10 10 11 13 16 17 14 11 11 13 17 22 24 25 26 28
34 41 42 38 31 26 23 20 15 11 10 10 9 8 9 10 10 12 15 18 17 13 12 12 16 20 23 26 29 29 30 31
24 29 30 26 23 21 19 16 14 12 10 8 7 8 9 10 14 16 14 12 11 12 13 16 20 23 28 31 33 33 33 33
24 24 24 23 20 18 17 15 14 12 8 7 5 7 9 10 9 8 9 10 11 12 15 19 23 27 29 31 34 36 37 36
22 21 22 22 21 19 15 14 12 7 4 3 5 7 9 9 8 8 9 10 12 15 19 22 25 28 31 34 37 38 39 39
21 20 20 20 19 17 14 12 9 5 3 5 7 9 10 10 9 8 9 12 15 20 24 29 32 33 38 39 37 40 41 40
16 16 14 14 13 12 10 9 6 4 3 6 9 9 11 11 10 12 13 15 19 24 29 32 34 36 38 37 37 39 39 40
15 13 11 10 8 7 6 3 2 3 5 7 9 10 11 12 13 14 15 19 24 29 31 33 34 33 35 36 37 38 38 39
12 10 7 6 5 3 3 5 7 7 8 9 10 11 12 12 14 17 19 23 26 28 31 33 33 35 36 36 37 38 38 39
9 10 10 6 6 7 8 9 11 11 12 11 11 12 13 15 18 20 22 25 28 28 32 32 29 35 36 36 37 36 39 41
6 8 9 9 8 11 11 14 13 13 13 13 13 15 16 19 21 23 24 27 31 34 33 37 37 39 37 37 38 40 41 41
11 11 13 13 12 15 15 17 17 15 17 17 16 19 21 22 23 27 29 33 37 41 40 39 40 43 38 39 39 42 43 47
13 14 14 17 15 16 19 22 20 20 23 21 18 23 24 25 27 31 37 41 42 45 41 44 37 42 41 39 42 43 44 48
21 23 15 19 19 16 19 23 24 26 24 24 21 25 27 27 35 39 42 48 43 40 39 43 43 40 40 41 44 44 44 43
23 23 11 15 20 21 23 21 23 26 26 27 25 30 30 34 37 44 45 48 49 41 46 44 44 44 43 43 42 41 41 39
21 21 17 17 20 23 25 22 20 24 25 27 30 34 37 37 41 43 43 47 45 46 43 44 43 42 41 41 41 39 36 36

GFSFLT2_700_spd_033.txt.gz
Wind_Speed
33 40 39 38 39 30 26 24 23 20 19 17 14 13 11 8 6 5 6 7 10 13 15 15 15 11 11 11 9 12 13 14
33 39 41 40 39 35 28 27 25 20 19 17 17 13 10 6 4 3 4 7 10 11 13 13 11 10 9 10 9 11 14 16
35 43 38 35 35 37 31 28 26 22 23 17 15 12 8 5 3 1 2 6 9 10 13 13 10 10 11 11 13 15 17 18
28 31 40 38 39 39 35 29 30 27 19 18 14 10 7 4 4 3 5 7 10 13 14 13 9 9 10 14 17 20 22 23
25 24 40 42 43 42 38 39 38 22 19 16 12 9 8 6 6 8 8 9 13 15 12 11 10 12 15 19 22 23 24 26
28 31 22 37 40 40 39 32 26 21 18 16 12 10 8 8 9 9 10 13 13 9 10 10 12 16 20 22 23 24 27 28
14 29 32 36 33 39 30 23 21 19 15 13 11 10 9 9 10 11 11 8 7 8 9 11 15 20 24 26 26 28 30 29
32 40 38 32 28 27 25 22 18 15 14 13 11 9 8 8 8 7 6 5 6 8 10 15 21 25 28 29 31 32 30 29
23 24 26 27 26 24 22 21 18 16 14 11 9 6 5 3 5 5 5 5 7 10 15 19 23 27 30 32 33 32 30 30
21 22 23 23 22 21 20 20 19 14 11 8 5 4 5 5 6 6 6 8 10 14 17 21 25 28 29 29 32 34 35 34
18 19 19 20 20 18 18 17 15 12 9 6 6 5 6 8 9 8 9 11 14 16 20 23 25 28 29 30 33 35 34 35
19 20 20 20 19 17 16 15 13 11 9 7 6 7 8 9 10 10 12 15 16 18 21 24 26 28 28 29 35 36 35 36
17 16 14 13 12 12 11 11 11 10 9 10 10 9 9 10 12 13 14 16 19 22 26 29 29 29 31 35 38 41 38 36
16 16 14 13 10 10 10 11 11 11 12 12 13 12 12 13 14 16 17 19 22 26 30 34 37 39 38 37 40 40 36 37
13 14 14 12 12 12 11 12 12 13 12 12 14 17 16 15 16 19 22 24 27 31 33 40 41 41 36 39 37 39 37 36
14 13 14 15 14 14 13 12 14 15 19 19 18 19 19 18 20 23 26 28 33 35 39 46 38 36 38 36 35 35 36 40
14 15 17 19 20 18 16 16 16 18 23 22 20 22 23 21 24 27 28 33 37 41 37 40 47 36 36 35 35 36 36 38
19 17 19 21 21 19 19 19 17 19 22 25 25 24 25 27 28 28 31 35 39 36 40 38 45 36 34 36 36 37 36 38
22 22 27 17 22 21 19 20 22 23 25 27 27 25 27 29 28 30 34 33 36 36 40 41 40 39 37 36 37 36 37 36
22 22 28 17 13 17 17 20 23 26 25 23 22 23 24 26 27 28 31 34 36 37 36 41 37 37 37 36 37 37 34 33

GFSFLT2_700_spd_036.txt.gz
Wind_Speed
28 34 36 33 36 30 29 25 18 19 22 20 17 16 14 12 10 9 6 5 6 8 13 14 13 10 9 9 11 11 12 13
25 32 35 36 37 38 32 28 24 24 24 21 17 15 13 10 8 6 3 3 6 8 12 14 11 8 9 10 12 12 14 15
30 33 37 36 36 43 35 35 28 28 26 22 18 14 11 8 5 2 1 3 6 9 11 11 8 7 7 10 11 13 15 16
25 31 35 41 47 46 46 40 32 30 25 23 18 13 10 6 3 4 4 5 7 9 12 10 6 6 7 11 13 14 15 18
20 31 44 43 41 40 43 38 33 30 24 21 17 12 10 8 6 6 6 7 9 13 10 7 5 7 10 14 16 17 21 25
21 30 37 38 29 35 42 37 43 42 32 19 15 13 12 9 7 7 9 10 13 10 7 5 6 10 14 18 20 22 25 27
20 38 44 37 38 43 43 44 42 26 18 17 16 15 12 10 9 10 11 11 9 7 6 7 10 15 19 22 23 24 24 24
19 15 21 25 36 41 35 31 24 19 21 18 17 15 11 10 10 11 11 9 7 6 7 10 14 18 21 21 22 22 23 24
32 36 34 41 36 34 30 27 24 22 19 18 16 13 12 10 10 10 9 8 7 7 9 12 16 19 21 22 20 19 24 26
28 30 29 26 28 29 26 23 22 21 20 17 15 13 10 9 8 9 9 7 8 10 12 15 18 20 23 24 23 22 27 29
18 22 23 23 23 24 24 24 22 21 19 16 13 11 10 9 9 9 9 10 11 13 16 18 20 22 25 26 30 33 31 34
16 17 19 20 21 22 22 22 21 18 17 14 12 10 10 10 9 9 11 12 14 16 18 20 23 27 31 35 37 37 34 35
17 17 18 17 17 18 18 18 16 16 16 14 13 12 10 10 9 11 13 15 17 18 20 23 26 29 35 44 37 34 32 35
18 18 17 16 15 15 15 16 17 16 17 16 15 14 15 14 16 15 17 17 20 22 24 27 31 32 35 32 37 39 39 35
17 18 17 18 18 18 18 19 18 17 17 17 16 17 19 20 20 20 19 21 23 25 26 29 34 39 35 31 30 32 36 40
18 19 20 20 21 21 19 18 18 18 18 19 20 22 21 22 24 23 22 26 25 25 28 32 35 36 38 32 27 26 29 31
19 20 20 22 23 22 20 20 20 21 20 23 26 27 24 23 24 26 26 27 25 26 30 34 36 35 34 34 32 31 30 31
21 22 24 26 27 24 26 25 24 22 20 23 24 28 28 27 25 26 27 27 28 30 33 35 37 34 35 33 31 31 32 32
24 26 27 28 26 28 22 23 27 25 26 26 28 26 27 27 25 26 25 27 29 29 35 32 35 39 36 33 34 33 32 34
26 26 32 30 26 14 17 22 26 26 26 28 27 26 26 24 24 24 25 27 28 34 35 35 38 39 38 36 37 36 34 35

GFSFLT2_700_spd_039.txt.gz
Wind_Speed
26 27 33 31 30 29 27 25 23 22 22 19 20 19 17 15 13 9 7 6 6 8 11 12 9 8 10 9 9 10 11 11
24 29 28 32 35 31 31 29 27 26 25 23 21 19 17 14 11 7 4 3 4 6 8 10 9 8 6 7 8 8 11 11
25 25 26 34 35 41 35 32 29 27 28 26 22 21 18 13 9 5 2 1 3 6 9 10 7 4 6 7 9 11 12 13
24 25 26 30 36 34 40 35 32 33 30 28 24 21 16 12 8 5 3 3 5 7 10 7 4 4 5 9 11 11 13 16
24 27 27 30 39 44 42 49 36 36 33 27 20 17 15 12 6 5 5 5 7 10 7 4 3 4 7 11 12 13 15 17
23 26 24 42 40 46 40 43 41 39 27 27 23 22 11 5 7 7 7 8 10 10 5 4 4 6 9 11 13 14 15 18
24 34 34 37 55 47 49 48 48 33 33 27 22 16 12 11 10 10 9 11 11 8 7 5 5 7 12 14 15 15 15 18
14 33 34 37 37 39 35 39 37 37 32 25 22 14 14 13 12 11 12 12 10 9 8 7 8 10 12 15 17 17 16 20
13 32 38 38 36 35 28 32 39 35 33 20 15 16 14 13 13 13 13 13 11 10 9 9 10 11 14 16 18 19 24 26
28 26 22 23 37 36 38 37 29 27 19 17 19 17 14 13 14 14 11 12 11 11 11 12 13 16 18 21 24 28 31 31
28 27 29 35 37 38 37 30 22 19 19 19 17 16 15 15 14 12 11 12 12 13 13 14 17 20 23 25 27 33 34 30
18 19 17 19 20 21 22 21 22 22 20 19 18 17 16 15 15 12 12 13 14 14 14 16 20 22 26 31 32 34 31 33
17 19 19 18 18 20 22 21 20 19 20 19 18 17 16 15 15 13 15 16 16 15 17 20 22 24 27 33 43 43 34 32
16 16 17 16 16 18 19 19 18 18 19 20 20 17 16 15 18 17 18 19 19 20 20 23 27 26 28 33 36 37 43 38
15 15 15 17 18 19 19 20 21 19 18 19 19 18 19 20 21 22 23 24 23 24 24 26 29 32 33 36 36 28 27 35
18 18 19 20 19 18 19 19 18 19 20 19 20 21 21 22 26 27 26 27 28 27 28 29 31 33 36 35 30 30 28 26
17 19 20 20 21 21 22 20 21 22 23 22 24 22 26 28 30 30 26 29 31 29 30 30 31 34 36 35 37 35 34 31
20 22 23 23 25 24 26 25 26 27 27 24 25 26 25 27 31 30 31 31 31 30 30 30 34 30 34 35 35 34 34 33
26 26 27 29 27 24 25 37 37 30 32 26 29 30 30 30 28 30 30 30 30 29 29 33 35 35 36 36 36 33 34 34
28 27 28 27 30 26 23 20 27 17 27 29 31 32 32 31 29 30 27 27 28 26 31 32 37 39 38 38 40 37 38 38

GFSFLT2_700_spd_042.txt.gz
Wind_Speed
18 30 36 35 30 27 26 24 25 22 21 22 22 21 19 18 16 13 10 8 8 10 11 10 9 9 8 9 10 8 8 13
29 23 25 30 29 29 27 26 28 23 24 25 24 22 20 17 14 11 8 5 6 7 8 7 7 6 7 8 7 6 7 12
18 16 18 22 25 36 33 32 25 27 28 27 25 23 20 17 13 9 6 3 3 5 7 4 4 5 6 6 5 8 9 12
19 16 25 22 32 35 39 35 37 33 31 27 30 26 20 16 12 8 5 2 2 5 7 1 2 4 3 5 8 9 11 11
13 14 27 20 28 37 41 37 42 41 36 37 29 24 21 17 14 10 5 0 4 7 6 2 3 5 6 9 10 10 12 12
17 19 22 29 36 39 39 40 44 40 36 32 28 20 19 16 8 1 2 4 6 8 4 2 2 3 5 8 9 11 14 12
22 23 25 25 32 44 42 37 42 43 39 37 30 25 18 11 9 4 7 7 8 6 4 2 4 5 7 7 10 12 13 15
21 30 31 27 39 41 48 45 45 43 48 38 32 18 16 18 9 8 8 9 10 6 5 5 6 6 8 9 11 13 17 26
15 19 32 36 46 38 44 38 45 52 43 34 24 24 20 14 11 10 11 11 11 8 8 8 8 9 10 11 13 16 21 26
10 18 27 33 30 31 35 13 30 35 32 26 25 18 14 14 13 12 12 10 11 11 12 10 11 13 13 14 17 19 23 28
17 16 16 15 15 21 24 30 32 30 28 22 18 17 14 15 15 13 11 13 14 13 14 13 13 15 16 18 21 24 27 29
22 27 30 32 27 31 27 34 30 24 23 30 18 17 17 16 14 15 13 15 14 15 16 16 17 17 20 27 27 27 30 33
16 19 21 23 26 27 27 27 24 21 27 15 19 18 16 16 16 13 15 18 16 18 17 18 20 19 24 26 33 36 37 37
15 17 18 19 20 20 20 19 19 19 19 20 18 18 15 15 17 14 17 20 20 18 21 22 24 24 25 28 28 36 39 39
12 13 14 14 16 18 18 19 19 19 19 18 18 18 19 18 20 20 21 23 24 24 25 26 28 31 26 28 32 33 38 38
14 14 15 15 16 15 16 16 16 14 16 17 19 19 20 21 22 24 25 26 28 28 29 30 29 31 32 30 31 34 35 31
13 14 14 15 16 17 17 18 19 20 21 21 22 19 19 23 26 25 27 30 35 30 30 32 32 30 32 34 43 34 34 32
17 17 17 17 19 18 18 19 20 23 25 25 24 24 24 26 27 27 27 29 28 29 32 31 33 30 30 37 36 42 37 38
18 19 19 20 21 21 17 19 23 25 34 37 26 28 24 23 28 31 31 31 29 29 34 32 28 29 36 34 40 43 37 40
24 24 25 25 28 24 20 15 20 19 22 23 28 31 27 30 28 32 33 31 34 33 31 29 30 29 37 43 41 42 44 41

GFSFLT2_700_spd_045.txt.gz
Wind_Speed
12 23 31 28 23 23 30 27 25 24 25 24 24 24 22 21 19 17 15 12 11 11 10 12 12 11 9 5 4 12 7 9
15 23 29 38 24 31 29 26 26 26 26 26 25 24 22 21 18 15 13 11 10 9 8 9 10 9 7 4 5 10 9 10
20 12 20 21 26 30 25 24 24 27 29 29 28 27 25 22 18 15 12 10 7 7 6 6 7 7 6 4 6 9 9 9
20 14 14 10 17 21 36 42 33 34 31 29 30 27 25 22 18 15 12 9 6 5 4 6 5 5 4 3 6 9 8 10
18 13 16 17 14 23 34 42 40 43 35 33 30 29 26 23 20 14 9 7 5 3 5 6 6 5 5 5 7 7 8 9
14 11 10 18 20 20 35 32 39 39 37 34 31 30 25 18 11 6 4 3 6 5 2 3 3 5 4 5 7 8 9 12
16 10 19 25 26 21 37 39 45 40 39 35 30 28 24 18 11 12 9 1 1 1 2 3 2 1 2 3 6 9 11 14
17 20 21 24 28 25 35 44 42 39 39 41 33 31 23 19 14 19 7 5 5 1 2 2 2 4 4 4 6 11 14 14
19 16 16 28 34 20 35 44 47 48 52 48 47 34 27 20 23 13 7 6 3 4 5 5 5 6 6 6 9 12 17 21
14 29 29 36 31 19 26 41 38 46 37 49 38 31 25 24 17 9 7 5 6 7 6 6 7 7 8 9 11 14 16 21
25 24 24 21 26 26 22 36 27 33 28 34 32 30 22 19 13 11 11 8 9 9 9 9 10 11 12 15 18 18 19 20
20 23 23 19 17 18 29 37 20 23 35 34 32 24 22 16 14 13 9 11 10 10 13 12 15 16 18 21 22 21 23 25
23 26 27 25 25 26 26 30 35 40 35 33 25 22 18 17 16 13 10 14 12 13 13 14 19 19 22 25 26 25 26 30
17 17 20 25 26 30 31 32 33 31 26 21 16 17 18 17 16 13 13 15 15 15 17 20 23 23 24 25 27 30 31 33
13 15 16 18 23 25 24 21 20 20 17 15 14 16 15 14 18 14 14 19 21 21 21 23 26 27 26 28 29 32 33 33
10 11 15 18 19 20 19 18 18 15 15 15 17 18 18 16 20 20 18 20 23 23 28 25 33 28 30 31 32 30 33 35
11 12 15 14 13 15 15 16 15 15 18 20 22 19 21 21 21 20 21 22 23 26 27 29 28 30 34 35 38 27 30 36
16 16 15 15 14 14 15 15 14 16 19 21 23 23 21 23 20 21 21 23 27 29 27 28 33 27 40 37 30 27 32 37
21 21 20 20 19 18 15 8 7 11 11 16 21 27 26 27 20 21 23 27 32 31 33 28 32 26 32 29 28 29 33 40
24 25 22 20 20 18 14 15 6 11 12 16 15 10 18 19 21 25 28 32 31 31 31 31 26 25 30 38 34 31 35 42

GFSFLT2_700_spd_048.txt.gz
Wind_Speed
22 21 27 27 45 34 36 31 30 28 27 25 25 26 25 23 21 19 17 15 14 12 11 10 5 5 15 13 11 9 8 8
17 15 19 32 22 30 43 34 26 28 29 29 29 27 26 24 22 19 18 15 11 12 11 10 7 3 8 11 9 7 7 7
13 14 10 9 26 25 38 37 28 30 30 30 30 29 28 25 23 19 16 13 12 9 9 8 8 5 6 6 6 6 8 9
15 18 5 5 14 30 29 35 30 30 31 32 30 29 27 25 22 19 16 12 9 9 8 9 7 3 3 4 6 7 8 9
13 26 17 12 2 25 24 35 32 35 35 34 33 32 27 26 22 17 10 6 5 6 12 10 8 5 4 4 5 6 7 9
13 23 17 16 14 11 19 38 43 39 36 34 32 28 30 24 19 13 13 8 5 7 10 9 7 6 3 4 5 5 6 10
19 18 14 20 23 21 23 40 42 35 38 34 29 34 29 24 18 15 14 8 4 5 7 8 7 2 1 2 2 3 6 9
20 18 16 19 26 28 29 37 47 37 38 35 36 32 28 24 19 16 21 7 3 4 6 7 6 3 2 3 4 6 8 11
27 16 22 19 27 31 31 35 39 41 39 39 38 34 30 26 21 20 23 10 6 8 8 7 6 5 6 6 8 9 10 12
25 25 21 14 31 27 26 26 44 47 49 48 40 36 36 31 27 24 17 11 10 10 7 8 8 8 9 10 10 12 14 15
28 30 22 25 27 36 26 19 45 45 46 43 45 44 31 30 26 24 16 12 9 7 9 9 9 9 11 11 14 16 18 19
31 23 37 32 23 29 29 19 43 33 34 26 49 47 34 29 26 20 17 12 8 8 9 9 10 12 14 15 17 18 20 24
11 28 23 27 23 23 31 25 28 41 28 27 34 38 31 28 23 20 17 10 10 10 12 12 14 17 18 20 23 24 24 26
17 18 17 17 19 23 23 20 23 28 31 34 34 32 30 26 22 18 13 13 13 13 13 15 18 21 23 26 29 28 28 28
14 18 19 21 23 24 26 27 29 36 32 28 27 26 25 25 21 18 17 18 15 15 16 17 21 25 24 30 32 32 30 29
11 11 13 13 18 21 23 26 27 23 20 20 22 27 30 24 21 22 21 19 18 16 18 21 23 26 27 31 29 36 34 33
11 14 15 16 14 16 17 19 19 23 24 24 26 27 25 24 23 25 24 20 18 20 22 24 27 27 28 25 33 42 37 35
12 11 11 14 16 17 17 15 17 19 19 20 20 20 21 22 23 23 22 20 20 21 22 27 29 28 26 29 27 32 31 30
15 14 14 14 15 16 15 17 21 17 14 16 17 18 20 23 27 25 24 21 22 22 25 29 29 27 26 30 28 30 30 33
20 18 17 17 15 14 15 15 17 11 13 14 12 15 13 18 22 24 26 23 24 25 28 27 30 26 24 30 31 31 29 34